Location: Crescent
(42.8242°N, 73.7329°W)
Time: 17:28:44
(UTC+00:00)

Vanguard 1 Rocket - Pass Details

Date: 18 February 2026
Orbit: 653 x 4214 km, 34.3° (Epoch: 8 March)

Event Time Altitude Azimuth Distance (km) Brightness Sun altitude
Rises 16:27:12 0° 204° (SSW) 3,753 11.2 34.9°
Reaches altitude 10° 16:29:54 10° 190° (S) 3,123 11.3 35.0°
Maximum altitude 16:36:11 25° 137° (SE) 2,888 11.2 35.2°
Drops below altitude 10° 16:46:10 10° 89° (E) 5,162 11.4 35.5°
Sets 16:52:23 0° 80° (E) 6,851 11.8 35.6°
